Other Public Products
Issued by NWS Grand Forks, ND

Home | Current Version | Previous Version | Graphics & Text | Print | Product List | Glossary On
Versions: 1 2 3 4 5 6 7 8 9 10 11 12 13 14 15 16 17 18 19 20 21 22 23 24 25 26 27 28 29 30 31 32 33 34 35 36 37 38 39 40 41 42 43 44 45 46 47 48 49 50
000
FPUS83 KFGF 260610
OPUFGF
PRAIRIE TO PINES WEATHER ROUNDUP
NATIONAL WEATHER SERVICE EASTERN NORTH DAKOTA/GRAND FORKS ND
100 AM CDT WED APR 26 2017

 **SATELLITE DATA USED TO AUGMENT SKY COVER AT AUTOMATED STATIONS**
 *****  WEATHER ACROSS EASTERN NORTH DAKOTA  *****

CITY           SKY/WX    TMP DP  RH WIND       PRES   REMARKS
GRAND FORKS    CLOUDY    33  27  78 NE20      29.87F WCI  21
6HR MIN TEMP:  33; 6HR MAX TEMP:  37;

GRAND FORKS AF CLOUDY    31  25  76 NE18G28   29.87F WCI  19
GRAND CITY NWS NOT AVBL
BUXTON         NOT AVBL
DEVILS LAKE    FAIR      32  26  78 NE15      29.91F WCI  22
6HR MIN TEMP:  32; 6HR MAX TEMP:  35;

FARGO          LGT RAIN  33  28  81 N16G28    29.78F WCI  23
6HR MIN TEMP:  33; 6HR MAX TEMP:  37; 6HR PCP: TRACE;

WAHPETON ARPT  CLOUDY    32  30  93 N16       29.73F WCI  21
$$

 *****  WEATHER ACROSS CENTRAL AND WESTERN NORTH DAKOTA  *****

CITY           SKY/WX    TMP DP  RH WIND       PRES   REMARKS
JAMESTOWN      CLOUDY    32  26  78 N17G24    29.82F WCI  21
6HR MIN TEMP:  32; 6HR MAX TEMP:  32;

BISMARCK       CLOUDY    37  26  64 N9        29.91F
6HR MIN TEMP:  36; 6HR MAX TEMP:  37;

MINOT          FAIR      32  24  72 N13       29.97S WCI  22
6HR MIN TEMP:  32; 6HR MAX TEMP:  43;

MINOT AFB      MOCLDY    31  22  67 NE16      29.97S WCI  20
6HR MIN TEMP:  31; 6HR MAX TEMP:  42;

GARRISON         N/A     33  24  69 NE8       29.95S
6HR MIN TEMP:  32; 6HR MAX TEMP:  39;

WILLISTON      CLOUDY    34  25  69 NE7       29.99S
6HR MIN TEMP:  34; 6HR MAX TEMP:  40;

DICKINSON      CLOUDY    31  25  78 N5        29.90F
6HR MIN TEMP:  30; 6HR MAX TEMP:  32;

HETTINGER      CLOUDY    31  25  78 N6        29.92S
6HR MIN TEMP:  31; 6HR MAX TEMP:  31;

$$

 *****  OTHER OBSERVATIONS NORTHEAST NORTH DAKOTA  *****

CITY           SKY/WX    TMP DP  RH WIND       PRES   REMARKS
WALHALLA       NOT AVBL
LANGDON        FAIR      30  27  86 NE16      29.92F WCI  19
CAVALIER       FAIR      32  23  69 NE16G24   29.94F WCI  21
GRAFTON        CLOUDY    32  27  80 NE18      29.93F WCI  20
CANDO          NOT AVBL
FORT TOTTEN      N/A     32  28  83 NE7       29.95S
ROLLA          FAIR      28  21  74 N17G24    29.96S WCI  16
RUGBY          NOT AVBL
 ***** THE ABOVE OBSERVATIONS ARE NON NWS ARE NOT QUALITY
        CONTROLLED AND MAY MIS-REPORT RAIN FOR SNOW...
$$

 *****  OTHER OBSERVATIONS SOUTHEAST NORTH DAKOTA *****

CITY           SKY/WX    TMP DP  RH WIND       PRES   REMARKS
COOPERSTOWN    CLOUDY    30  28  93 NE25G36   29.83F WCI  16
VALLEY CITY    CLOUDY    30  30 100 NE18G25   29.82F WCI  18
OAKES          NOT AVBL
GWINNER        CLOUDY    32  30  93 MISG      29.76F
SHEYENNE NWR     N/A     31  27  86 NE17      29.95S WCI  19
BUFFALO        NOT AVBL
WYNDMERE         N/A     34  30  86 N20         N/A  WCI  22
 ***** THE ABOVE OBSERVATIONS ARE NON NWS ARE NOT QUALITY
       CONTROLLED AND MAY MIS-REPORT RAIN FOR SNOW...
$$

  *****  WEATHER ACROSS NORTHERN MINNESOTA  *****

CITY           SKY/WX    TMP DP  RH WIND       PRES   REMARKS
FLAG ISLAND    CLOUDY    28  23  80 NE18G25   29.94F WCI  16
WARROAD        CLOUDY    30  25  80 NE21G29   29.92F WCI  17
ROSEAU         CLOUDY    30  25  80 NE20G26   29.91F WCI  18
HALLOCK        CLOUDY    32  25  74 NE16G22   29.93F WCI  21
THF RVR FALLS  CLOUDY    30  25  81 NE18G32   29.85F WCI  18
6HR MIN TEMP:  30; 6HR MAX TEMP:  32;

HALSTAD          N/A     32  27  81 NE24        N/A  WCI  18
FOSSTON        CLOUDY    28  27  93 N14G20    29.80F WCI  17
BAUDETTE       CLOUDY    28  20  71 NE15G26   29.89F WCI  16
6HR MIN TEMP:  28; 6HR MAX TEMP:  31;

WASKISH        CLOUDY    28  25  86 NE13G21   29.84S WCI  18
CROOKSTON      CLOUDY    32  27  80 NE16      29.85F WCI  21
$$
  *****  WEATHER ACROSS CENTRAL AND WEST MINNESOTA  *****

CITY           SKY/WX    TMP DP  RH WIND       PRES   REMARKS
BEMIDJI        MIX PCPN  29  27  92 NE9       29.78S WCI  21
PARK RAPIDS    FRZ RAIN  32  27  81 NE8G17    29.72F WCI  25
6HR MIN TEMP:  32; 6HR MAX TEMP:  38; 6HR PCP:  0.06;

WADENA         LGT SNOW  30  30 100 NE13      29.69S WCI  20
DETROIT LAKES  MIX PCPN  32  32 100 NE8       29.74F WCI  25
MOORHEAD       RAIN      32  28  86 N17G23    29.77F WCI  21
FERGUS FALLS   LGT RAIN  34  34 100 NE12G20   29.71F
ELBOW LAKE     LGT RAIN  35  33  95 E16G22    29.69F WCI  25
6HR MIN TEMP:  35; 6HR MAX TEMP:  40; 6HR PCP:  0.01;

MORRIS MN      DRIZZLE   36  34  93 N21       29.65F
STAPLES        MIX PCPN  30  30 100 CALM      29.69S
WHEATON        MIX PCPN  34  32  93 N13G20    29.72F WCI  25
$$
  *****  WEATHER ELSEWHERE ACROSS MINNESOTA  *****

CITY           SKY/WX    TMP DP  RH WIND       PRES   REMARKS
DULUTH         LGT RAIN  36  34  92 E15       29.70F
6HR MIN TEMP:  36; 6HR MAX TEMP:  42; 6HR PCP:  0.31;

INTRNTL FALLS  CLOUDY    26  21  81 NE17G25   29.87F WCI  13
6HR MIN TEMP:  26; 6HR MAX TEMP:  30;

ELY            LGT SNOW  25  25 100 NE7G17    29.81S WCI  17
CLOQUET        LGT RAIN  36  34  93 NE14G23   29.68F
BRAINERD       LGT RAIN  32  31  96 NE16G28   29.68F WCI  21
6HR MIN TEMP:  32; 6HR MAX TEMP:  44; 6HR PCP:  0.17;

HIBBING        FRZ RAIN  29  28  96 N9G20     29.75F FOG     WCI  20
6HR MIN TEMP:  29; 6HR MAX TEMP:  34; 6HR PCP:  0.08;

ALEXANDRIA     LGT RAIN  34  33  96 NE15      29.66S WCI  24
6HR MIN TEMP:  34; 6HR MAX TEMP:  42; 6HR PCP:  0.13;

SAINT CLOUD    LGT RAIN  42  41  96 N14G20    29.59R FOG
6HR MIN TEMP:  42; 6HR MAX TEMP:  49; 6HR PCP:  0.26;

MINNEAPOLIS    CLOUDY    47  44  90 NE16G23   29.52S
6HR MIN TEMP:  47; 6HR MAX TEMP:  55; 6HR PCP:  0.29;

$$

  *****  WEATHER ACROSS SOUTH DAKOTA  *****

CITY           SKY/WX    TMP DP  RH WIND       PRES   REMARKS
SIOUX FALLS    CLOUDY    37  37 100 NW17      29.64F
6HR MIN TEMP:  37; 6HR MAX TEMP:  39; 6HR PCP:  0.07;

BROOKINGS      CLOUDY    34  32  92 N17       29.65F WCI  23
WATERTOWN      CLOUDY    32  30  92 N16       29.68S WCI  21
6HR MIN TEMP:  32; 6HR MAX TEMP:  34;

HURON          CLOUDY    32  31  96 NW14G23   29.76S FOG     WCI  22
6HR MIN TEMP:  32; 6HR MAX TEMP:  35; 6HR PCP: TRACE;

SISSETON         N/A     33  32  96 N23G29    29.72F WCI  21
ABERDEEN       CLOUDY    32  27  81 N17G26    29.78F WCI  21
6HR MIN TEMP:  32; 6HR MAX TEMP:  34;

MITCHELL       CLOUDY    34  31  88 NW20      29.76S WCI  23
PIERRE         CLOUDY    32  28  85 N12       29.83F WCI  23
6HR MIN TEMP:  31; 6HR MAX TEMP:  33; 6HR PCP: TRACE;

MOBRIDGE       CLOUDY    35  25  66 N16G23    29.83F
RAPID CITY     CLOUDY    28  25  88 NW15      29.90F WCI  16
6HR MIN TEMP:  28; 6HR MAX TEMP:  28; 6HR PCP: TRACE;

$$

  *****  SOME WEATHER IN NEARBY STATES *****

CITY           SKY/WX    TMP DP  RH WIND       PRES   REMARKS
GLASGOW MT     CLOUDY    37  23  56 E14       29.93S
6HR MIN TEMP:  37; 6HR MAX TEMP:  44;

GREAT FALLS MT CLOUDY    38  36  92 W6        29.83F
6HR MIN TEMP:  38; 6HR MAX TEMP:  46; 6HR PCP:  0.26;

CHEYENNE WY    CLOUDY    27  23  85 N9        29.83F WCI  18
6HR MIN TEMP:  27; 6HR MAX TEMP:  38;

SCOTTSBLUFF NE CLOUDY    32  25  75 W5        29.87S
6HR MIN TEMP:  31; 6HR MAX TEMP:  39;

OMAHA NE       CLOUDY    42  37  82 N18       29.57F
6HR MIN TEMP:  42; 6HR MAX TEMP:  45; 6HR PCP:  0.06;

DES MOINES IA  DRIZZLE   49  45  86 NW9       29.50S
6HR MIN TEMP:  49; 6HR MAX TEMP:  70; 6HR PCP: TRACE;

DAVENPORT IA   FAIR      70  49  47 S18G28    29.44S
6HR MIN TEMP:  67; 6HR MAX TEMP:  76; 6HR PCP: TRACE;

CHICAGO IL     CLOUDY    68  53  58 S10       29.53F
6HR MIN TEMP:  66; 6HR MAX TEMP:  76;

EAU CLAIRE WI  LGT RAIN  50  49  96 NE12      29.51F
6HR MIN TEMP:  50; 6HR MAX TEMP:  56; 6HR PCP:  0.20;

LA CROSSE WI   RAIN      57  55  93 CALM      29.48R FOG
6HR MIN TEMP:  57; 6HR MAX TEMP:  62; 6HR PCP:  0.04;

$$

  *****  SOME NATIONAL WEATHER *****

CITY           SKY/WX    TMP DP  RH WIND       PRES   REMARKS
LA GUARDIA NY  CLOUDY    53  51  93 NE21      29.80S FOG



USA.gov is the U.S. government's official web portal to all federal, state and local government web resources and services.